sat.trackr.live / text

‹ back to catalog

STARLINK-36235

NORAD 68400 · 2026-063W

PAYLOAD ACTIVE UNKNOWN

§ Identity

Operator
Country
US
Launch date
2026-03-26
Launch site
AFWTR
Launch vehicle
Mass (kg)
RCS (m²)

Purposes: comms

External: N2YO · Heavens-Above · Gunter

§ Orbital elements

Epoch: 2026-05-25T03:37:13.471104Z

Period
93.91 min
Inclination
97.2858°
Eccentricity
0.0001025
Mean motion
15.33464171 rev/d
Perigee alt
464.8 km
Apogee alt
466.2 km
Semi-major
6,843.6 km
B*
6.0733e-4
RAAN
287.7240°
Arg perigee
61.0065°
Mean anomaly
299.1280°
Rev number
961

§ Raw data

STARLINK-362351 68400U 26063W   26145.15085036  .00019594  00000+0  60733-3 0  99902 68400  97.2858 287.7240 0001025  61.0065 299.1280 15.33464171  9617

JSON: /api/v1/satellites/68400 · /tle

For live sub-satellite position, see the globe view (requires WebGL).

§ Visibility from observer

Set your observer location to see the next 7 days of passes ≥ 10°. The values pass through the URL so the page stays shareable.

No JS? Fill the form by hand. The geolocation button needs JavaScript.